Salem, OR

12:29 AM PDT on May 24, 2017 (GMT -0700)
McNary

Weather History for KSLE - October, 2012

Change the Weather History Date:

Sunday, October 21, 2012

  Actual Average Record
Temperature  
Mean Temperature 47 °F 52 °F  
Max Temperature 53 °F 62 °F 80 °F (2003)
Min Temperature 41 °F 41 °F 28 °F (1933)
Degree Days  
Heating Degree Days 18 14  
Month to date heating degree days 186 217  
Since 1 July heating degree days 287 382  
Cooling Degree Days 0 0  
Month to date cooling degree days 0 0  
Year to date cooling degree days 317 289  
Moisture  
Dew Point 43 °F    
Average Humidity 83    
Maximum Humidity 100    
Minimum Humidity 66    
Precipitation  
Precipitation 0.15 in 0.11 in 1.40 in (1934)
Month to date precipitation 3.16 1.68  
Year to date precipitation 35.30 24.96  
Snow  
Snow 0.00 in - - ()
Month to date snowfall 0.0  
Snow Depth 0.00 in    
Sea Level Pressure  
Sea Level Pressure 29.86 in    
Wind  
Wind Speed 6 mph (SSE)    
Max Wind Speed 16 mph    
Max Gust Speed 21 mph    
Visibility 10 miles    
Events Rain    
T = Trace of Precipitation, MM = Missing Value Source: NWS Daily Summary

Daily Weather History Graph

Daily Weather History Graph

Search for Another Location

Airport or City:

Trip Planner

Search our weather history database for the weather conditions in past years. The results will help you decide how hot, cold, wet, or windy it might be!

Date:

Astronomy

Oct. 21, 2012 Rise Set
Actual Time 7:36 AM PDT 6:16 PM PDT
Civil Twilight 7:06 AM PDT 6:45 PM PDT
Nautical Twilight 6:32 AM PDT 7:20 PM PDT
Astronomical Twilight 5:58 AM PDT 7:53 PM PDT
Moon 2:05 PM PDT (10/21) No Moon Set
Length of Visible Light 11h 39m
Length of Day
10h 39m
Waxing Crescent, 46% of the Moon is Illuminated
Oct 21
Waxing Crescent
Oct 21
First Quarter
Oct 29
Full
Nov 6
Last Quarter
Nov 13
New

Hourly Weather History & Observations

Time (PDT) Temp. Windchill Dew Point Humidity Pressure Visibility Wind Dir Wind Speed Gust Speed Precip Events Conditions
12:56 AM 45.0 °F 41.8 °F 43.0 °F 93% 29.94 in 10.0 mi SSE 5.8 mph - N/A   Overcast
1:56 AM 46.0 °F 41.4 °F 43.0 °F 89% 29.93 in 10.0 mi South 9.2 mph - N/A   Scattered Clouds
2:56 AM 46.0 °F 43.1 °F 44.1 °F 93% 29.93 in 7.0 mi WNW 5.8 mph - 0.02 in Rain Rain
3:56 AM 45.0 °F 40.6 °F 44.1 °F 97% 29.91 in 10.0 mi SSE 8.1 mph - 0.10 in   Mostly Cloudy
4:56 AM 43.0 °F 38.2 °F 41.0 °F 93% 29.90 in 10.0 mi South 8.1 mph - N/A   Clear
5:56 AM 43.0 °F 37.7 °F 41.0 °F 93% 29.91 in 10.0 mi South 9.2 mph - N/A   Scattered Clouds
6:56 AM 44.1 °F 40.1 °F 42.1 °F 93% 29.91 in 10.0 mi SE 6.9 mph - 0.00 in   Overcast
7:56 AM 44.1 °F 39.5 °F 43.0 °F 96% 29.91 in 10.0 mi SSE 8.1 mph - 0.00 in   Overcast
9:56 AM 46.9 °F - 44.1 °F 90% 29.91 in 10.0 mi South 11.5 mph - N/A   Overcast
10:56 AM 48.9 °F - 44.1 °F 83% 29.90 in 10.0 mi South 9.2 mph - N/A   Overcast
11:56 AM 50.0 °F - 44.1 °F 80% 29.90 in 10.0 mi SSE 8.1 mph - N/A   Mostly Cloudy
12:13 PM 50.0 °F - 44.6 °F 82% 29.89 in 10.0 mi South 12.7 mph - N/A   Mostly Cloudy
12:56 PM 52.0 °F - 42.1 °F 69% 29.88 in 10.0 mi South 11.5 mph - N/A   Mostly Cloudy
1:08 PM 51.8 °F - 42.8 °F 71% 29.88 in 10.0 mi South 12.7 mph 19.6 mph N/A   Mostly Cloudy
1:56 PM 53.1 °F - 42.1 °F 66% 29.86 in 10.0 mi South 10.4 mph - N/A   Mostly Cloudy
2:56 PM 48.9 °F - 44.1 °F 83% 29.85 in 10.0 mi SW 6.9 mph - 0.00 in Rain Light Rain
3:56 PM 50.0 °F - 44.1 °F 80% 29.83 in 10.0 mi Calm Calm - 0.01 in   Overcast
4:56 PM 51.1 °F - 44.1 °F 77% 29.82 in 10.0 mi Calm Calm - N/A   Mostly Cloudy
5:56 PM 50.0 °F - 43.0 °F 77% 29.80 in 10.0 mi SE 5.8 mph - N/A   Mostly Cloudy
6:56 PM 46.0 °F 43.9 °F 42.1 °F 86% 29.78 in 10.0 mi SE 4.6 mph - N/A   Mostly Cloudy
7:56 PM 48.0 °F - 43.0 °F 83% 29.78 in 10.0 mi SSE 4.6 mph - 0.00 in Rain Light Rain
9:56 PM 46.0 °F 43.1 °F 43.0 °F 89% 29.76 in 10.0 mi South 5.8 mph - 0.00 in   Overcast
10:56 PM 43.0 °F 39.5 °F 41.0 °F 93% 29.74 in 10.0 mi SE 5.8 mph - 0.00 in   Clear
11:56 PM 43.0 °F - 42.1 °F 97% 29.72 in 10.0 mi Calm Calm - N/A   Scattered Clouds